This is the latest recevied weather packets stored in our database for station/object N7MLR. If no packets are shown the sender has not sent any weather packets the latest 10 day(s).
| Time | Temp. | Humidity | Pressure | Rain* | Wind** | Luminosity | Snow |
|---|---|---|---|---|---|---|---|
| 1778093056 | 28.33° C | 71% | 1010.5 hPa | 0 mm | - | 271 W/m² | - |
| 1778092754 | 28.33° C | 71% | 1010.5 hPa | 0 mm | - | 236 W/m² | - |
| 1778092449 | 28.33° C | 71% | 1010.4 hPa | 0 mm | - | 280 W/m² | - |
| 1778092147 | 28.33° C | 71% | 1010.5 hPa | 0 mm | - | 462 W/m² | - |
| 1778091844 | 28.33° C | 70% | 1010.3 hPa | 0 mm | - | 730 W/m² | - |
| 1778091541 | 28.89° C | 71% | 1010.5 hPa | 0 mm | - | 747 W/m² | - |
| 1778091239 | 28.89° C | 71% | 1010.8 hPa | 0 mm | - | 727 W/m² | - |
| 1778090936 | 28.89° C | 71% | 1010.7 hPa | 0 mm | - | 723 W/m² | - |
| 1778090631 | 28.33° C | 70% | 1010.8 hPa | 0 mm | - | 752 W/m² | - |
| 1778090328 | 28.89° C | 72% | 1010.6 hPa | 0 mm | - | 739 W/m² | - |
| 1778090025 | 28.33° C | 70% | 1010.8 hPa | 0 mm | - | 752 W/m² | - |
| 1778089722 | 27.78° C | 73% | 1010.7 hPa | 0 mm | - | 724 W/m² | - |
| 1778089420 | 26.67° C | 75% | 1011.2 hPa | 0 mm | - | 828 W/m² | - |
| 1778089117 | 26.67° C | 75% | 1010.7 hPa | 0 mm | - | 449 W/m² | - |
| 1778088813 | 25.56° C | 76% | 1010.9 hPa | 0 mm | - | 747 W/m² | - |
| 1778088511 | 25° C | 78% | 1011.2 hPa | 0 mm | - | 741 W/m² | - |
| 1778088207 | 24.44° C | 79% | 1011.2 hPa | 0 mm | - | 606 W/m² | - |
| 1778087905 | 23.33° C | 80% | 1011.3 hPa | 0 mm | - | 417 W/m² | - |
| 1778087602 | 23.33° C | 82% | 1011.2 hPa | 0 mm | - | 327 W/m² | - |
| 1778087299 | 22.78° C | 83% | 1011.3 hPa | 0 mm | - | 452 W/m² | - |
| 1778086995 | 22.22° C | 84% | 1011.4 hPa | 0 mm | - | 173 W/m² | - |
| 1778086694 | 22.22° C | 84% | 1011.4 hPa | 0 mm | - | 121 W/m² | - |
| 1778086391 | 21.67° C | 85% | 1011.3 hPa | 0 mm | - | 124 W/m² | - |
| 1778086088 | 21.67° C | 85% | 1011.5 hPa | 0 mm | - | 165 W/m² | - |
| 1778085785 | 21.67° C | 85% | 1011.3 hPa | 0 mm | - | 108 W/m² | - |
* Rain latest hour (hover to see other rain measurements)
** Current wind speed in m/s (hover to see current wind gust speed)